TimeEDT,TemperatureF,Dew PointF,Humidity,Sea Level PressureIn,VisibilityMPH,Wind Direction,Wind SpeedMPH,Gust SpeedMPH,PrecipitationIn,Events,Conditions,WindDirDegrees,DateUTC
12:53 AM,48.0,45.0,89,29.93,10.0,ESE,11.5,-,0.02,Rain,Light Rain,120,2013-04-18 04:53:00
1:08 AM,48.2,44.6,87,29.91,5.0,ESE,11.5,20.7,0.03,Rain-Thunderstorm,Heavy Rain,120,2013-04-18 05:08:00
1:50 AM,48.2,44.6,87,29.88,8.0,ESE,13.8,18.4,0.16,Rain-Thunderstorm,Light Thunderstorms and Rain,110,2013-04-18 05:50:00
1:53 AM,48.0,44.1,86,29.88,10.0,ESE,16.1,20.7,0.16,Rain-Thunderstorm,Light Thunderstorms and Rain,120,2013-04-18 05:53:00
2:06 AM,48.2,44.6,87,29.87,10.0,ESE,12.7,21.9,N/A,,Overcast,110,2013-04-18 06:06:00
2:53 AM,48.0,44.1,86,29.82,9.0,ESE,13.8,-,N/A,,Overcast,110,2013-04-18 06:53:00
3:02 AM,48.2,44.6,87,29.81,9.0,ESE,12.7,20.7,N/A,,Overcast,120,2013-04-18 07:02:00
3:53 AM,48.0,45.0,89,29.80,8.0,East,3.5,-,N/A,,Overcast,100,2013-04-18 07:53:00
4:26 AM,48.2,46.4,93,29.77,7.0,ESE,5.8,-,N/A,,Overcast,110,2013-04-18 08:26:00
4:53 AM,50.0,46.9,89,29.78,7.0,NE,4.6,-,N/A,,Mostly Cloudy,40,2013-04-18 08:53:00
5:11 AM,48.2,46.4,93,29.77,5.0,NE,9.2,27.6,N/A,,Overcast,40,2013-04-18 09:11:00
5:53 AM,48.0,46.0,93,29.78,5.0,NE,6.9,-,N/A,Thunderstorm,Overcast,50,2013-04-18 09:53:00
6:02 AM,48.2,44.6,87,29.76,5.0,ENE,6.9,-,N/A,,Overcast,60,2013-04-18 10:02:00
6:53 AM,48.0,46.0,93,29.73,4.0,ESE,4.6,-,N/A,,Overcast,110,2013-04-18 10:53:00
7:12 AM,48.2,46.4,93,29.70,4.0,ESE,5.8,-,N/A,,Scattered Clouds,110,2013-04-18 11:12:00
7:53 AM,52.0,50.0,93,29.69,4.0,South,10.4,-,N/A,,Clear,170,2013-04-18 11:53:00
8:53 AM,60.1,55.9,86,29.67,10.0,South,15.0,23.0,N/A,,Partly Cloudy,170,2013-04-18 12:53:00
9:53 AM,64.9,59.0,81,29.63,10.0,South,12.7,-,N/A,,Mostly Cloudy,180,2013-04-18 13:53:00
10:53 AM,69.1,61.0,75,29.61,10.0,South,19.6,26.5,N/A,,Mostly Cloudy,180,2013-04-18 14:53:00
11:53 AM,72.0,62.1,71,29.56,10.0,South,25.3,36.8,N/A,,Overcast,190,2013-04-18 15:53:00
12:53 PM,69.1,60.1,73,29.58,10.0,SW,20.7,35.7,0.00,,Overcast,220,2013-04-18 16:53:00
1:53 PM,64.9,57.9,78,29.63,10.0,SW,19.6,29.9,0.02,Rain,Rain,220,2013-04-18 17:53:00
2:53 PM,64.9,60.1,84,29.60,10.0,SSW,17.3,-,0.01,Rain,Light Rain,200,2013-04-18 18:53:00
3:53 PM,62.1,59.0,90,29.65,10.0,SW,19.6,24.2,0.05,Rain,Light Rain,220,2013-04-18 19:53:00
4:11 PM,62.6,59.0,88,29.66,10.0,SSW,18.4,-,0.01,Rain,Light Rain,210,2013-04-18 20:11:00
4:19 PM,62.6,59.0,88,29.65,10.0,SSW,16.1,-,0.01,Rain,Light Rain,210,2013-04-18 20:19:00
4:32 PM,62.6,59.0,88,29.62,10.0,SSW,17.3,-,0.02,Rain,Light Rain,200,2013-04-18 20:32:00
4:41 PM,62.6,59.0,88,29.62,10.0,SSW,15.0,-,0.02,,Overcast,200,2013-04-18 20:41:00
4:53 PM,62.1,59.0,90,29.62,10.0,SSW,16.1,25.3,0.02,Rain,Light Rain,200,2013-04-18 20:53:00
5:08 PM,62.6,57.2,82,29.61,10.0,SW,16.1,24.2,0.00,Rain,Light Rain,220,2013-04-18 21:08:00
5:15 PM,62.6,57.2,82,29.63,10.0,SW,19.6,25.3,0.00,Rain,Light Rain,220,2013-04-18 21:15:00
5:53 PM,62.1,57.9,86,29.63,10.0,SSW,20.7,28.8,0.01,Rain,Light Rain,210,2013-04-18 21:53:00
6:22 PM,60.8,57.2,88,29.62,10.0,SSW,19.6,-,0.01,Rain,Light Rain,200,2013-04-18 22:22:00
6:32 PM,60.8,57.2,88,29.63,10.0,SSW,19.6,26.5,0.01,Rain,Light Rain,200,2013-04-18 22:32:00
6:53 PM,61.0,57.9,90,29.63,10.0,SSW,18.4,26.5,0.02,Rain,Light Rain,210,2013-04-18 22:53:00
7:01 PM,60.8,57.2,88,29.63,10.0,SSW,18.4,27.6,0.01,Rain,Light Rain,210,2013-04-18 23:01:00
7:53 PM,60.1,57.0,90,29.63,10.0,South,17.3,25.3,0.04,Rain,Light Rain,190,2013-04-18 23:53:00
8:53 PM,59.0,57.0,93,29.57,10.0,SE,12.7,-,0.08,Rain,Light Rain,140,2013-04-19 00:53:00
9:53 PM,59.0,55.9,90,29.57,10.0,South,17.3,25.3,0.01,Rain,Light Rain,170,2013-04-19 01:53:00
10:53 PM,59.0,55.9,90,29.56,9.0,SSE,13.8,24.2,0.11,Rain,Rain,160,2013-04-19 02:53:00
11:53 PM,57.9,55.9,93,29.52,7.0,SSE,15.0,-,0.13,Rain,Rain,160,2013-04-19 03:53:00